Location: Unspecified
(0.0000°N, 0.0000°E)
Time: 06:46:19
(UTC+00:00)

Tiros 1 despin weight - Pass Details

Date: 27 November 2019
Orbit: 594 x 642 km, 48.2° (Epoch: 10 December)

Event Time Altitude Azimuth Distance (km) Brightness Sun altitude
Rises 07:49:46 0° 244° (WSW) 2,878 ? 28.3°
Reaches altitude 10° 07:52:32 10° 259° (W) 1,961 ? 29.0°
Maximum altitude 07:55:58 21° 309° (NW) 1,354 ? 29.7°
Drops below altitude 10° 07:59:21 10° 359° (N) 1,933 ? 30.5°
Sets 08:02:04 0° 16° (NNE) 2,825 ? 31.1°
